#datetime,building,power
2022-03-19T00:01:00,pth,2.40
2022-03-19T00:02:00,pth,1.20
2022-03-19T00:04:00,pth,2.40
2022-03-19T00:06:00,pth,2.40
2022-03-19T00:08:00,pth,2.40
2022-03-19T00:10:00,pth,2.40
2022-03-19T00:12:00,pth,2.40
2022-03-19T00:13:00,pth,1.20
2022-03-19T00:15:00,pth,3.60
2022-03-19T00:17:00,pth,2.40
2022-03-19T00:19:00,pth,2.40
2022-03-19T00:21:00,pth,2.40
2022-03-19T00:23:00,pth,2.40
2022-03-19T00:25:00,pth,2.40
2022-03-19T00:27:00,pth,2.40
2022-03-19T00:29:00,pth,3.60
2022-03-19T00:31:00,pth,2.40
2022-03-19T00:33:00,pth,2.40
2022-03-19T00:35:00,pth,2.40
2022-03-19T00:36:00,pth,1.20
2022-03-19T00:37:00,pth,1.20
2022-03-19T00:39:00,pth,2.40
2022-03-19T00:41:00,pth,2.40
2022-03-19T00:43:00,pth,2.40
2022-03-19T00:45:00,pth,2.40
2022-03-19T00:47:00,pth,2.40
2022-03-19T00:48:00,pth,1.20
2022-03-19T00:50:00,pth,2.40
2022-03-19T00:52:00,pth,2.40
2022-03-19T00:54:00,pth,2.40
2022-03-19T00:55:00,pth,1.20
2022-03-19T00:57:00,pth,3.60
2022-03-19T00:58:00,pth,1.20
2022-03-19T01:00:00,pth,2.40
2022-03-19T01:02:00,pth,2.40
2022-03-19T01:04:00,pth,2.40
2022-03-19T01:06:00,pth,2.40
2022-03-19T01:07:00,pth,1.20
2022-03-19T01:09:00,pth,2.40
2022-03-19T01:11:00,pth,2.40
2022-03-19T01:13:00,pth,2.40
2022-03-19T01:15:00,pth,2.40
2022-03-19T01:17:00,pth,2.40
2022-03-19T01:19:00,pth,2.40
2022-03-19T01:21:00,pth,3.60
2022-03-19T01:23:00,pth,1.20
2022-03-19T01:25:00,pth,2.40
2022-03-19T01:27:00,pth,2.40
2022-03-19T01:29:00,pth,3.60
2022-03-19T01:30:00,pth,1.20
2022-03-19T01:31:00,pth,1.20
2022-03-19T01:33:00,pth,1.20
2022-03-19T01:35:00,pth,2.40
2022-03-19T01:36:00,pth,1.20
2022-03-19T01:38:00,pth,2.40
2022-03-19T01:39:00,pth,1.20
2022-03-19T01:41:00,pth,2.40
2022-03-19T01:43:00,pth,1.20
2022-03-19T01:44:00,pth,1.20
2022-03-19T01:46:00,pth,2.40
2022-03-19T01:48:00,pth,2.40
2022-03-19T01:49:00,pth,1.20
2022-03-19T01:51:00,pth,2.40
2022-03-19T01:53:00,pth,1.20
2022-03-19T01:55:00,pth,2.40
2022-03-19T01:56:00,pth,1.20
2022-03-19T01:58:00,pth,2.40
2022-03-19T02:00:00,pth,1.20
2022-03-19T02:01:00,pth,1.20
2022-03-19T02:02:00,pth,1.20
2022-03-19T02:04:00,pth,2.40
2022-03-19T02:06:00,pth,2.40
2022-03-19T02:07:00,pth,1.20
2022-03-19T02:09:00,pth,2.40
2022-03-19T02:11:00,pth,2.40
2022-03-19T02:13:00,pth,3.60
2022-03-19T02:15:00,pth,2.40
2022-03-19T02:17:00,pth,2.40
2022-03-19T02:18:00,pth,2.40
2022-03-19T02:20:00,pth,2.40
2022-03-19T02:21:00,pth,1.20
2022-03-19T02:22:00,pth,1.20
2022-03-19T02:25:00,pth,6.00
2022-03-19T02:27:00,pth,1.20
2022-03-19T02:28:00,pth,1.20
2022-03-19T02:30:00,pth,2.40
2022-03-19T02:32:00,pth,1.20
2022-03-19T02:33:00,pth,1.20
2022-03-19T02:35:00,pth,2.40
2022-03-19T02:36:00,pth,1.20
2022-03-19T02:37:00,pth,1.20
2022-03-19T02:39:00,pth,2.40
2022-03-19T02:41:00,pth,2.40
2022-03-19T02:43:00,pth,2.40
2022-03-19T02:44:00,pth,1.20
2022-03-19T02:46:00,pth,2.40
2022-03-19T02:47:00,pth,1.20
2022-03-19T02:49:00,pth,2.40
2022-03-19T02:51:00,pth,2.40
2022-03-19T02:52:00,pth,1.20
2022-03-19T02:54:00,pth,2.40
2022-03-19T02:56:00,pth,2.40
2022-03-19T02:57:00,pth,1.20
2022-03-19T02:59:00,pth,2.40
2022-03-19T03:01:00,pth,2.40
2022-03-19T03:03:00,pth,2.40
2022-03-19T03:04:00,pth,1.20
2022-03-19T03:06:00,pth,2.40
2022-03-19T03:08:00,pth,2.40
2022-03-19T03:10:00,pth,2.40
2022-03-19T03:12:00,pth,1.20
2022-03-19T03:13:00,pth,1.20
2022-03-19T03:15:00,pth,2.40
2022-03-19T03:16:00,pth,1.20
2022-03-19T03:18:00,pth,2.40
2022-03-19T03:20:00,pth,2.40
2022-03-19T03:22:00,pth,2.40
2022-03-19T03:24:00,pth,2.40
2022-03-19T03:25:00,pth,1.20
2022-03-19T03:27:00,pth,1.20
2022-03-19T03:29:00,pth,2.40
2022-03-19T03:30:00,pth,1.20
2022-03-19T03:32:00,pth,2.40
2022-03-19T03:34:00,pth,2.40
2022-03-19T03:36:00,pth,1.20
2022-03-19T03:38:00,pth,2.40
2022-03-19T03:40:00,pth,2.40
2022-03-19T03:41:00,pth,1.20
2022-03-19T03:43:00,pth,1.20
2022-03-19T03:45:00,pth,2.40
2022-03-19T03:46:00,pth,1.20
2022-03-19T03:48:00,pth,2.40
2022-03-19T03:50:00,pth,1.20
2022-03-19T03:52:00,pth,2.40
2022-03-19T03:54:00,pth,2.40
2022-03-19T03:56:00,pth,2.40
2022-03-19T03:58:00,pth,1.20
2022-03-19T04:00:00,pth,2.40
2022-03-19T04:01:00,pth,1.20
2022-03-19T04:03:00,pth,2.40
2022-03-19T04:05:00,pth,2.40
2022-03-19T04:06:00,pth,1.20
2022-03-19T04:08:00,pth,1.20
2022-03-19T04:10:00,pth,2.40
2022-03-19T04:11:00,pth,1.20
2022-03-19T04:13:00,pth,2.40
2022-03-19T04:15:00,pth,1.20
2022-03-19T04:17:00,pth,2.40
2022-03-19T04:19:00,pth,2.40
2022-03-19T04:21:00,pth,2.40
2022-03-19T04:23:00,pth,2.40
2022-03-19T04:25:00,pth,1.20
2022-03-19T04:27:00,pth,2.40
2022-03-19T04:29:00,pth,2.40
2022-03-19T04:32:00,pth,2.40
2022-03-19T04:33:00,pth,1.20
2022-03-19T04:35:00,pth,2.40
2022-03-19T04:36:00,pth,1.20
2022-03-19T04:38:00,pth,2.40
2022-03-19T04:39:00,pth,1.20
2022-03-19T04:40:00,pth,1.20
2022-03-19T04:41:00,pth,1.20
2022-03-19T04:43:00,pth,2.40
2022-03-19T04:45:00,pth,2.40
2022-03-19T04:47:00,pth,2.40
2022-03-19T04:49:00,pth,2.40
2022-03-19T04:50:00,pth,1.20
2022-03-19T04:52:00,pth,2.40
2022-03-19T04:53:00,pth,1.20
2022-03-19T04:55:00,pth,2.40
2022-03-19T04:57:00,pth,2.40
2022-03-19T04:58:00,pth,1.20
2022-03-19T05:00:00,pth,1.20
2022-03-19T05:01:00,pth,1.20
2022-03-19T05:03:00,pth,2.40
2022-03-19T05:04:00,pth,1.20
2022-03-19T05:06:00,pth,2.40
2022-03-19T05:08:00,pth,2.40
2022-03-19T05:10:00,pth,2.40
2022-03-19T05:11:00,pth,1.20
2022-03-19T05:13:00,pth,2.40
2022-03-19T05:16:00,pth,2.40
2022-03-19T05:17:00,pth,1.20
2022-03-19T05:19:00,pth,2.40
2022-03-19T05:21:00,pth,1.20
2022-03-19T05:23:00,pth,2.40
2022-03-19T05:24:00,pth,1.20
2022-03-19T05:26:00,pth,1.20
2022-03-19T05:27:00,pth,1.20
2022-03-19T05:29:00,pth,2.40
2022-03-19T05:30:00,pth,1.20
2022-03-19T05:32:00,pth,2.40
2022-03-19T05:34:00,pth,1.20
2022-03-19T05:36:00,pth,2.40
2022-03-19T05:38:00,pth,2.40
2022-03-19T05:39:00,pth,1.20
2022-03-19T05:41:00,pth,1.20
2022-03-19T05:42:00,pth,1.20
2022-03-19T05:43:00,pth,1.20
2022-03-19T05:44:00,pth,1.20
2022-03-19T05:46:00,pth,2.40
2022-03-19T05:47:00,pth,1.20
2022-03-19T05:48:00,pth,1.20
2022-03-19T05:50:00,pth,2.40
2022-03-19T05:52:00,pth,1.20
2022-03-19T05:54:00,pth,2.40
2022-03-19T05:56:00,pth,2.40
2022-03-19T05:58:00,pth,2.40
2022-03-19T05:59:00,pth,1.20
2022-03-19T06:01:00,pth,2.40
2022-03-19T06:03:00,pth,1.20
2022-03-19T06:05:00,pth,2.40
2022-03-19T06:07:00,pth,2.40
2022-03-19T06:09:00,pth,2.40
2022-03-19T06:10:00,pth,1.20
2022-03-19T06:12:00,pth,2.40
2022-03-19T06:14:00,pth,2.40
2022-03-19T06:15:00,pth,1.20
2022-03-19T06:17:00,pth,2.40
2022-03-19T06:19:00,pth,2.40
2022-03-19T06:21:00,pth,2.40
2022-03-19T06:23:00,pth,2.40
2022-03-19T06:24:00,pth,1.20
2022-03-19T06:25:00,pth,1.20
2022-03-19T06:27:00,pth,2.40
2022-03-19T06:29:00,pth,2.40
2022-03-19T06:31:00,pth,2.40
2022-03-19T06:33:00,pth,2.40
2022-03-19T06:34:00,pth,1.20
2022-03-19T06:35:00,pth,1.20
2022-03-19T06:37:00,pth,2.40
2022-03-19T06:38:00,pth,1.20
2022-03-19T06:40:00,pth,2.40
2022-03-19T06:41:00,pth,1.20
2022-03-19T06:43:00,pth,2.40
2022-03-19T06:44:00,pth,1.20
2022-03-19T06:46:00,pth,1.20
2022-03-19T06:47:00,pth,1.20
2022-03-19T06:49:00,pth,2.40
2022-03-19T06:50:00,pth,1.20
2022-03-19T06:52:00,pth,2.40
2022-03-19T06:53:00,pth,1.20
2022-03-19T06:56:00,pth,2.40
2022-03-19T06:57:00,pth,1.20
2022-03-19T06:58:00,pth,1.20
2022-03-19T07:00:00,pth,2.40
2022-03-19T07:02:00,pth,2.40
2022-03-19T07:04:00,pth,2.40
2022-03-19T07:06:00,pth,1.20
2022-03-19T07:07:00,pth,1.20
2022-03-19T07:09:00,pth,2.40
2022-03-19T07:10:00,pth,1.20
2022-03-19T07:12:00,pth,2.40
2022-03-19T07:13:00,pth,1.20
2022-03-19T07:15:00,pth,2.40
2022-03-19T07:16:00,pth,1.20
2022-03-19T07:18:00,pth,3.60
2022-03-19T07:19:00,pth,1.20
2022-03-19T07:21:00,pth,2.40
2022-03-19T07:23:00,pth,2.40
2022-03-19T07:24:00,pth,1.20
2022-03-19T07:26:00,pth,2.40
2022-03-19T07:28:00,pth,2.40
2022-03-19T07:30:00,pth,2.40
2022-03-19T07:32:00,pth,2.40
2022-03-19T07:34:00,pth,2.40
2022-03-19T07:35:00,pth,1.20
2022-03-19T07:37:00,pth,2.40
2022-03-19T07:39:00,pth,3.60
2022-03-19T07:41:00,pth,2.40
2022-03-19T07:42:00,pth,1.20
2022-03-19T07:44:00,pth,2.40
2022-03-19T07:46:00,pth,2.40
2022-03-19T07:48:00,pth,1.20
2022-03-19T07:49:00,pth,1.20
2022-03-19T07:50:00,pth,1.20
2022-03-19T07:52:00,pth,1.20
2022-03-19T07:53:00,pth,1.20
2022-03-19T07:55:00,pth,2.40
2022-03-19T07:57:00,pth,1.20
2022-03-19T07:59:00,pth,2.40
2022-03-19T08:01:00,pth,2.40
2022-03-19T08:03:00,pth,2.40
2022-03-19T08:05:00,pth,1.20
2022-03-19T08:07:00,pth,2.40
2022-03-19T08:09:00,pth,2.40
2022-03-19T08:10:00,pth,2.40
2022-03-19T08:12:00,pth,2.40
2022-03-19T08:13:00,pth,1.20
2022-03-19T08:15:00,pth,2.40
2022-03-19T08:16:00,pth,1.20
2022-03-19T08:17:00,pth,1.20
2022-03-19T08:19:00,pth,3.60
2022-03-19T08:20:00,pth,1.20
2022-03-19T08:22:00,pth,2.40
2022-03-19T08:24:00,pth,2.40
2022-03-19T08:25:00,pth,1.20
2022-03-19T08:27:00,pth,2.40
2022-03-19T08:29:00,pth,2.40
2022-03-19T08:31:00,pth,3.60
2022-03-19T08:33:00,pth,2.40
2022-03-19T08:35:00,pth,2.40
2022-03-19T08:36:00,pth,1.20
2022-03-19T08:38:00,pth,2.40
2022-03-19T08:39:00,pth,1.20
2022-03-19T08:41:00,pth,2.40
2022-03-19T08:42:00,pth,1.20
2022-03-19T08:43:00,pth,1.20
2022-03-19T08:44:00,pth,1.20
2022-03-19T08:45:00,pth,2.40
2022-03-19T08:47:00,pth,10.80
2022-03-19T08:49:00,pth,13.20
2022-03-19T08:51:00,pth,13.20
2022-03-19T08:52:00,pth,6.00
2022-03-19T08:54:00,pth,13.20
2022-03-19T08:55:00,pth,7.20
2022-03-19T08:56:00,pth,6.00
2022-03-19T08:58:00,pth,12.00
2022-03-19T09:00:00,pth,13.20
2022-03-19T09:01:00,pth,4.80
2022-03-19T09:03:00,pth,12.00
2022-03-19T09:04:00,pth,6.00
2022-03-19T09:06:00,pth,10.80
2022-03-19T09:07:00,pth,7.20
2022-03-19T09:08:00,pth,4.80
2022-03-19T09:10:00,pth,12.00
2022-03-19T09:11:00,pth,4.80
2022-03-19T09:12:00,pth,8.40
2022-03-19T09:14:00,pth,10.80
2022-03-19T09:15:00,pth,3.60
2022-03-19T09:16:00,pth,6.00
2022-03-19T09:18:00,pth,9.60
2022-03-19T09:20:00,pth,13.20
2022-03-19T09:22:00,pth,12.00
2022-03-19T09:23:00,pth,6.00
2022-03-19T09:25:00,pth,9.60
2022-03-19T09:26:00,pth,4.80
2022-03-19T09:27:00,pth,4.80
2022-03-19T09:28:00,pth,6.00
2022-03-19T09:30:00,pth,9.60
2022-03-19T09:31:00,pth,3.60
2022-03-19T09:32:00,pth,7.20
2022-03-19T09:34:00,pth,9.60
2022-03-19T09:35:00,pth,2.40
2022-03-19T09:37:00,pth,9.60
2022-03-19T09:38:00,pth,7.20
2022-03-19T09:40:00,pth,9.60
2022-03-19T09:41:00,pth,3.60
2022-03-19T09:42:00,pth,6.00
2022-03-19T09:43:00,pth,2.40
2022-03-19T09:45:00,pth,2.40
2022-03-19T09:46:00,pth,1.20
2022-03-19T09:48:00,pth,2.40
2022-03-19T09:49:00,pth,1.20
2022-03-19T09:51:00,pth,2.40
2022-03-19T09:52:00,pth,1.20
2022-03-19T09:53:00,pth,1.20
2022-03-19T09:54:00,pth,1.20
2022-03-19T09:56:00,pth,12.00
2022-03-19T09:57:00,pth,7.20
2022-03-19T09:59:00,pth,13.20
2022-03-19T10:01:00,pth,12.00
2022-03-19T10:02:00,pth,7.20
2022-03-19T10:04:00,pth,12.00
2022-03-19T10:06:00,pth,13.20
2022-03-19T10:08:00,pth,10.80
2022-03-19T10:10:00,pth,2.40
2022-03-19T10:12:00,pth,2.40
2022-03-19T10:13:00,pth,1.20
2022-03-19T10:15:00,pth,2.40
2022-03-19T10:17:00,pth,1.20
2022-03-19T10:19:00,pth,2.40
2022-03-19T10:21:00,pth,2.40
2022-03-19T10:23:00,pth,2.40
2022-03-19T10:25:00,pth,2.40
2022-03-19T10:27:00,pth,2.40
2022-03-19T10:30:00,pth,2.40
2022-03-19T10:32:00,pth,1.20
2022-03-19T10:33:00,pth,1.20
2022-03-19T10:34:00,pth,1.20
2022-03-19T10:36:00,pth,2.40
2022-03-19T10:38:00,pth,2.40
2022-03-19T10:41:00,pth,2.40
2022-03-19T10:43:00,pth,2.40
2022-03-19T10:44:00,pth,1.20
2022-03-19T10:46:00,pth,2.40
2022-03-19T10:47:00,pth,2.40
2022-03-19T10:49:00,pth,3.60
2022-03-19T10:51:00,pth,3.60
2022-03-19T10:53:00,pth,2.40
2022-03-19T10:55:00,pth,2.40
2022-03-19T10:58:00,pth,2.40
2022-03-19T10:59:00,pth,1.20
2022-03-19T11:00:00,pth,1.20
2022-03-19T11:01:00,pth,2.40
2022-03-19T11:03:00,pth,2.40
2022-03-19T11:05:00,pth,2.40
2022-03-19T11:06:00,pth,1.20
2022-03-19T11:08:00,pth,2.40
2022-03-19T11:10:00,pth,2.40
2022-03-19T11:12:00,pth,2.40
2022-03-19T11:15:00,pth,2.40
2022-03-19T11:17:00,pth,1.20
2022-03-19T11:19:00,pth,2.40
2022-03-19T11:20:00,pth,1.20
2022-03-19T11:21:00,pth,1.20
2022-03-19T11:23:00,pth,2.40
2022-03-19T11:25:00,pth,1.20
2022-03-19T11:27:00,pth,1.20
2022-03-19T11:29:00,pth,1.20
2022-03-19T11:31:00,pth,1.20
2022-03-19T11:32:00,pth,1.20
2022-03-19T11:34:00,pth,1.20
2022-03-19T11:35:00,pth,1.20
2022-03-19T11:37:00,pth,1.20
2022-03-19T11:39:00,pth,2.40
2022-03-19T11:40:00,pth,1.20
2022-03-19T11:42:00,pth,1.20
2022-03-19T11:44:00,pth,2.40
2022-03-19T11:46:00,pth,1.20
2022-03-19T11:48:00,pth,2.40
2022-03-19T11:51:00,pth,2.40
2022-03-19T11:54:00,pth,2.40
2022-03-19T11:55:00,pth,1.20
2022-03-19T11:57:00,pth,1.20
2022-03-19T11:58:00,pth,1.20
2022-03-19T12:00:00,pth,2.40
2022-03-19T12:02:00,pth,1.20
2022-03-19T12:04:00,pth,2.40
2022-03-19T12:05:00,pth,1.20
2022-03-19T12:07:00,pth,1.20
2022-03-19T12:08:00,pth,1.20
2022-03-19T12:10:00,pth,2.40
2022-03-19T12:11:00,pth,1.20
2022-03-19T12:13:00,pth,1.20
2022-03-19T12:14:00,pth,1.20
2022-03-19T12:16:00,pth,1.20
2022-03-19T12:17:00,pth,1.20
2022-03-19T12:19:00,pth,2.40
2022-03-19T12:22:00,pth,2.40
2022-03-19T12:24:00,pth,1.20
2022-03-19T12:26:00,pth,1.20
2022-03-19T12:27:00,pth,1.20
2022-03-19T12:29:00,pth,1.20
2022-03-19T12:30:00,pth,1.20
2022-03-19T12:32:00,pth,1.20
2022-03-19T12:35:00,pth,2.40
2022-03-19T12:38:00,pth,1.20
2022-03-19T12:40:00,pth,2.40
2022-03-19T12:42:00,pth,1.20
2022-03-19T12:44:00,pth,1.20
2022-03-19T12:46:00,pth,2.40
2022-03-19T12:48:00,pth,1.20
2022-03-19T12:49:00,pth,1.20
2022-03-19T12:50:00,pth,1.20
2022-03-19T12:52:00,pth,1.20
2022-03-19T12:53:00,pth,1.20
2022-03-19T12:55:00,pth,1.20
2022-03-19T12:56:00,pth,1.20
2022-03-19T12:58:00,pth,2.40
2022-03-19T13:00:00,pth,2.40
2022-03-19T13:02:00,pth,1.20
2022-03-19T13:04:00,pth,2.40
2022-03-19T13:07:00,pth,2.40
2022-03-19T13:09:00,pth,1.20
2022-03-19T13:11:00,pth,13.20
2022-03-19T13:12:00,pth,6.00
2022-03-19T13:14:00,pth,14.40
2022-03-19T13:15:00,pth,6.00
2022-03-19T13:17:00,pth,13.20
2022-03-19T13:18:00,pth,6.00
2022-03-19T13:20:00,pth,13.20
2022-03-19T13:21:00,pth,7.20
2022-03-19T13:23:00,pth,13.20
2022-03-19T13:24:00,pth,6.00
2022-03-19T13:26:00,pth,14.40
2022-03-19T13:28:00,pth,12.00
2022-03-19T13:30:00,pth,13.20
2022-03-19T13:32:00,pth,13.20
2022-03-19T13:34:00,pth,12.00
2022-03-19T13:36:00,pth,13.20
2022-03-19T13:38:00,pth,12.00
2022-03-19T13:39:00,pth,6.00
2022-03-19T13:41:00,pth,13.20
2022-03-19T13:43:00,pth,12.00
2022-03-19T13:44:00,pth,6.00
2022-03-19T13:45:00,pth,6.00
2022-03-19T13:46:00,pth,9.60
2022-03-19T13:47:00,pth,6.00
2022-03-19T13:49:00,pth,12.00
2022-03-19T13:51:00,pth,7.20
2022-03-19T13:53:00,pth,7.20
2022-03-19T13:54:00,pth,6.00
2022-03-19T13:55:00,pth,6.00
2022-03-19T13:57:00,pth,6.00
2022-03-19T13:58:00,pth,6.00
2022-03-19T14:00:00,pth,7.20
2022-03-19T14:02:00,pth,7.20
2022-03-19T14:03:00,pth,6.00
2022-03-19T14:05:00,pth,6.00
2022-03-19T14:07:00,pth,6.00
2022-03-19T14:09:00,pth,2.40
2022-03-19T14:11:00,pth,1.20
2022-03-19T14:13:00,pth,1.19
2022-03-19T14:15:00,pth,1.20
2022-03-19T14:16:00,pth,1.20
2022-03-19T14:18:00,pth,1.20
2022-03-19T14:20:00,pth,1.20
2022-03-19T14:22:00,pth,1.20
2022-03-19T14:24:00,pth,1.19
2022-03-19T14:26:00,pth,1.20
2022-03-19T14:28:00,pth,1.20
2022-03-19T14:30:00,pth,1.20
2022-03-19T14:33:00,pth,2.40
2022-03-19T14:35:00,pth,1.19
2022-03-19T14:37:00,pth,1.20
2022-03-19T14:39:00,pth,1.20
2022-03-19T14:40:00,pth,1.20
2022-03-19T14:42:00,pth,1.20
2022-03-19T14:44:00,pth,2.40
2022-03-19T14:46:00,pth,1.20
2022-03-19T14:47:00,pth,1.20
2022-03-19T14:50:00,pth,1.20
2022-03-19T14:52:00,pth,1.20
2022-03-19T14:54:00,pth,2.40
2022-03-19T14:57:00,pth,1.19
2022-03-19T14:59:00,pth,1.20
2022-03-19T15:00:00,pth,1.20
2022-03-19T15:02:00,pth,1.20
2022-03-19T15:05:00,pth,1.20
2022-03-19T15:07:00,pth,1.20
2022-03-19T15:09:00,pth,1.19
2022-03-19T15:11:00,pth,1.20
2022-03-19T15:13:00,pth,2.40
2022-03-19T15:15:00,pth,1.20
2022-03-19T15:16:00,pth,1.20
2022-03-19T15:18:00,pth,1.19
2022-03-19T15:20:00,pth,1.20
2022-03-19T15:22:00,pth,1.20
2022-03-19T15:24:00,pth,1.20
2022-03-19T15:26:00,pth,1.20
2022-03-19T15:28:00,pth,1.20
2022-03-19T15:29:00,pth,1.19
2022-03-19T15:32:00,pth,2.40
2022-03-19T15:34:00,pth,1.20
2022-03-19T15:36:00,pth,1.20
2022-03-19T15:38:00,pth,1.20
2022-03-19T15:39:00,pth,1.20
2022-03-19T15:41:00,pth,1.19
2022-03-19T15:42:00,pth,1.20
2022-03-19T15:44:00,pth,1.20
2022-03-19T15:45:00,pth,1.20
2022-03-19T15:47:00,pth,1.20
2022-03-19T15:49:00,pth,1.20
2022-03-19T15:51:00,pth,2.40
2022-03-19T15:53:00,pth,1.20
2022-03-19T15:55:00,pth,1.20
2022-03-19T15:58:00,pth,2.40
2022-03-19T16:00:00,pth,1.19
2022-03-19T16:01:00,pth,1.20
2022-03-19T16:03:00,pth,1.20
2022-03-19T16:05:00,pth,1.20
2022-03-19T16:06:00,pth,1.20
2022-03-19T16:08:00,pth,1.20
2022-03-19T16:10:00,pth,1.19
2022-03-19T16:12:00,pth,1.20
2022-03-19T16:15:00,pth,1.20
2022-03-19T16:16:00,pth,1.20
2022-03-19T16:18:00,pth,1.20
2022-03-19T16:21:00,pth,1.20
2022-03-19T16:22:00,pth,1.20
2022-03-19T16:24:00,pth,1.19
2022-03-19T16:26:00,pth,1.20
2022-03-19T16:27:00,pth,1.20
2022-03-19T16:30:00,pth,1.20
2022-03-19T16:32:00,pth,1.20
2022-03-19T16:33:00,pth,1.20
2022-03-19T16:34:00,pth,1.20
2022-03-19T16:36:00,pth,1.19
2022-03-19T16:37:00,pth,1.20
2022-03-19T16:39:00,pth,1.20
2022-03-19T16:41:00,pth,1.20
2022-03-19T16:43:00,pth,1.20
2022-03-19T16:45:00,pth,2.40
2022-03-19T16:47:00,pth,1.20
2022-03-19T16:49:00,pth,1.20
2022-03-19T16:51:00,pth,1.20
2022-03-19T16:53:00,pth,1.20
2022-03-19T16:55:00,pth,2.40
2022-03-19T16:57:00,pth,1.20
2022-03-19T16:59:00,pth,1.20
2022-03-19T17:01:00,pth,1.20
2022-03-19T17:03:00,pth,1.20
2022-03-19T17:05:00,pth,1.20
2022-03-19T17:06:00,pth,1.20
2022-03-19T17:09:00,pth,8.39
2022-03-19T17:11:00,pth,13.21
2022-03-19T17:13:00,pth,13.20
2022-03-19T17:15:00,pth,13.20
2022-03-19T17:17:00,pth,12.00
2022-03-19T17:18:00,pth,6.00
2022-03-19T17:19:00,pth,6.00
2022-03-19T17:21:00,pth,13.20
2022-03-19T17:23:00,pth,12.00
2022-03-19T17:25:00,pth,12.00
2022-03-19T17:27:00,pth,13.20
2022-03-19T17:29:00,pth,12.00
2022-03-19T17:31:00,pth,13.20
2022-03-19T17:32:00,pth,6.00
2022-03-19T17:33:00,pth,6.00
2022-03-19T17:35:00,pth,13.20
2022-03-19T17:37:00,pth,12.00
2022-03-19T17:39:00,pth,13.20
2022-03-19T17:40:00,pth,6.00
2022-03-19T17:42:00,pth,12.00
2022-03-19T17:44:00,pth,12.00
2022-03-19T17:46:00,pth,12.00
2022-03-19T17:48:00,pth,13.20
2022-03-19T17:50:00,pth,12.00
2022-03-19T17:52:00,pth,12.00
2022-03-19T17:53:00,pth,6.00
2022-03-19T17:55:00,pth,12.00
2022-03-19T17:57:00,pth,13.20
2022-03-19T17:59:00,pth,12.00
2022-03-19T18:00:00,pth,6.00
2022-03-19T18:02:00,pth,12.00
2022-03-19T18:03:00,pth,6.01
2022-03-19T18:05:00,pth,13.20
2022-03-19T18:07:00,pth,10.80
2022-03-19T18:08:00,pth,1.20
2022-03-19T18:10:00,pth,1.20
2022-03-19T18:12:00,pth,1.20
2022-03-19T18:13:00,pth,1.20
2022-03-19T18:15:00,pth,2.40
2022-03-19T18:17:00,pth,1.20
2022-03-19T18:19:00,pth,2.40
2022-03-19T18:22:00,pth,2.40
2022-03-19T18:24:00,pth,1.19
2022-03-19T18:26:00,pth,1.20
2022-03-19T18:27:00,pth,1.20
2022-03-19T18:29:00,pth,1.20
2022-03-19T18:30:00,pth,1.20
2022-03-19T18:32:00,pth,1.20
2022-03-19T18:34:00,pth,1.20
2022-03-19T18:36:00,pth,1.19
2022-03-19T18:38:00,pth,1.20
2022-03-19T18:40:00,pth,2.40
2022-03-19T18:42:00,pth,1.20
2022-03-19T18:44:00,pth,2.40
2022-03-19T18:45:00,pth,1.20
2022-03-19T18:48:00,pth,2.40
2022-03-19T18:49:00,pth,1.20
2022-03-19T18:51:00,pth,1.20
2022-03-19T18:53:00,pth,2.40
2022-03-19T18:54:00,pth,1.20
2022-03-19T18:56:00,pth,2.40
2022-03-19T18:57:00,pth,1.20
2022-03-19T18:59:00,pth,2.40
2022-03-19T19:01:00,pth,1.20
2022-03-19T19:02:00,pth,1.20
2022-03-19T19:03:00,pth,1.20
2022-03-19T19:05:00,pth,2.40
2022-03-19T19:06:00,pth,1.19
2022-03-19T19:08:00,pth,3.60
2022-03-19T19:09:00,pth,2.40
2022-03-19T19:10:00,pth,3.60
2022-03-19T19:12:00,pth,3.60
2022-03-19T19:13:00,pth,1.19
2022-03-19T19:15:00,pth,2.40
2022-03-19T19:16:00,pth,1.20
2022-03-19T19:19:00,pth,2.40
2022-03-19T19:21:00,pth,2.40
2022-03-19T19:23:00,pth,2.40
2022-03-19T19:25:00,pth,2.40
2022-03-19T19:26:00,pth,1.20
2022-03-19T19:28:00,pth,2.40
2022-03-19T19:30:00,pth,2.40
2022-03-19T19:32:00,pth,2.40
2022-03-19T19:33:00,pth,1.19
2022-03-19T19:34:00,pth,1.20
2022-03-19T19:35:00,pth,1.20
2022-03-19T19:37:00,pth,2.40
2022-03-19T19:38:00,pth,1.20
2022-03-19T19:40:00,pth,2.40
2022-03-19T19:41:00,pth,1.20
2022-03-19T19:42:00,pth,1.20
2022-03-19T19:44:00,pth,2.40
2022-03-19T19:46:00,pth,2.40
2022-03-19T19:47:00,pth,1.20
2022-03-19T19:49:00,pth,1.20
2022-03-19T19:51:00,pth,2.40
2022-03-19T19:53:00,pth,2.40
2022-03-19T19:55:00,pth,2.40
2022-03-19T19:56:00,pth,1.20
2022-03-19T19:57:00,pth,1.20
2022-03-19T19:59:00,pth,1.20
2022-03-19T20:01:00,pth,2.40
2022-03-19T20:03:00,pth,3.60
2022-03-19T20:05:00,pth,2.40
2022-03-19T20:06:00,pth,1.20
2022-03-19T20:08:00,pth,2.40
2022-03-19T20:11:00,pth,2.40
2022-03-19T20:12:00,pth,1.19
2022-03-19T20:14:00,pth,3.60
2022-03-19T20:16:00,pth,4.80
2022-03-19T20:18:00,pth,2.40
2022-03-19T20:19:00,pth,1.20
2022-03-19T20:21:00,pth,3.60
2022-03-19T20:23:00,pth,2.40
2022-03-19T20:24:00,pth,1.20
2022-03-19T20:26:00,pth,2.40
2022-03-19T20:27:00,pth,1.19
2022-03-19T20:28:00,pth,1.20
2022-03-19T20:30:00,pth,2.40
2022-03-19T20:32:00,pth,2.40
2022-03-19T20:34:00,pth,2.40
2022-03-19T20:36:00,pth,2.40
2022-03-19T20:38:00,pth,2.40
2022-03-19T20:41:00,pth,2.40
2022-03-19T20:43:00,pth,2.40
2022-03-19T20:44:00,pth,1.20
2022-03-19T20:46:00,pth,2.40
2022-03-19T20:48:00,pth,2.40
2022-03-19T20:49:00,pth,1.20
2022-03-19T20:50:00,pth,1.20
2022-03-19T20:52:00,pth,2.40
2022-03-19T20:53:00,pth,1.19
2022-03-19T20:55:00,pth,2.40
2022-03-19T20:57:00,pth,3.60
2022-03-19T20:59:00,pth,2.40
2022-03-19T21:01:00,pth,2.40
2022-03-19T21:03:00,pth,3.60
2022-03-19T21:05:00,pth,2.40
2022-03-19T21:07:00,pth,1.20
2022-03-19T21:08:00,pth,1.20
2022-03-19T21:10:00,pth,2.40
2022-03-19T21:12:00,pth,2.40
2022-03-19T21:13:00,pth,1.20
2022-03-19T21:15:00,pth,3.60
2022-03-19T21:17:00,pth,2.40
2022-03-19T21:19:00,pth,3.60
2022-03-19T21:20:00,pth,2.40
2022-03-19T21:22:00,pth,2.40
2022-03-19T21:23:00,pth,1.20
2022-03-19T21:24:00,pth,1.20
2022-03-19T21:26:00,pth,2.40
2022-03-19T21:28:00,pth,2.40
2022-03-19T21:29:00,pth,1.20
2022-03-19T21:31:00,pth,2.40
2022-03-19T21:33:00,pth,2.40
2022-03-19T21:35:00,pth,3.60
2022-03-19T21:36:00,pth,3.60
2022-03-19T21:38:00,pth,3.60
2022-03-19T21:40:00,pth,2.40
2022-03-19T21:41:00,pth,1.19
2022-03-19T21:43:00,pth,3.60
2022-03-19T21:45:00,pth,2.40
2022-03-19T21:46:00,pth,1.20
2022-03-19T21:47:00,pth,1.19
2022-03-19T21:49:00,pth,2.40
2022-03-19T21:51:00,pth,2.40
2022-03-19T21:52:00,pth,1.20
2022-03-19T21:54:00,pth,2.40
2022-03-19T21:55:00,pth,1.20
2022-03-19T21:57:00,pth,2.40
2022-03-19T21:59:00,pth,3.60
2022-03-19T22:01:00,pth,2.40
2022-03-19T22:02:00,pth,1.20
2022-03-19T22:04:00,pth,2.40
2022-03-19T22:05:00,pth,1.20
2022-03-19T22:07:00,pth,2.40
2022-03-19T22:08:00,pth,1.20
2022-03-19T22:10:00,pth,2.40
2022-03-19T22:11:00,pth,1.19
2022-03-19T22:13:00,pth,2.40
2022-03-19T22:15:00,pth,2.40
2022-03-19T22:17:00,pth,3.60
2022-03-19T22:19:00,pth,2.40
2022-03-19T22:21:00,pth,2.40
2022-03-19T22:23:00,pth,2.40
2022-03-19T22:24:00,pth,1.20
2022-03-19T22:26:00,pth,2.40
2022-03-19T22:28:00,pth,2.40
2022-03-19T22:30:00,pth,2.40
2022-03-19T22:32:00,pth,2.40
2022-03-19T22:34:00,pth,2.40
2022-03-19T22:35:00,pth,1.19
2022-03-19T22:37:00,pth,2.40
2022-03-19T22:39:00,pth,2.40
2022-03-19T22:40:00,pth,1.20
2022-03-19T22:42:00,pth,2.40
2022-03-19T22:44:00,pth,3.60
2022-03-19T22:45:00,pth,2.40
2022-03-19T22:46:00,pth,2.40
2022-03-19T22:47:00,pth,2.40
2022-03-19T22:49:00,pth,4.80
2022-03-19T22:51:00,pth,6.00
2022-03-19T22:53:00,pth,4.80
2022-03-19T22:55:00,pth,4.80
2022-03-19T22:56:00,pth,1.20
2022-03-19T22:58:00,pth,2.40
2022-03-19T23:00:00,pth,2.40
2022-03-19T23:02:00,pth,2.40
2022-03-19T23:04:00,pth,3.60
2022-03-19T23:05:00,pth,1.20
2022-03-19T23:07:00,pth,2.40
2022-03-19T23:09:00,pth,3.60
2022-03-19T23:10:00,pth,1.19
2022-03-19T23:12:00,pth,2.40
2022-03-19T23:13:00,pth,1.20
2022-03-19T23:15:00,pth,2.40
2022-03-19T23:16:00,pth,1.19
2022-03-19T23:18:00,pth,2.40
2022-03-19T23:20:00,pth,2.40
2022-03-19T23:21:00,pth,2.40
2022-03-19T23:23:00,pth,2.40
2022-03-19T23:25:00,pth,1.20
2022-03-19T23:27:00,pth,2.40
2022-03-19T23:29:00,pth,2.40
2022-03-19T23:30:00,pth,1.20
2022-03-19T23:32:00,pth,2.40
2022-03-19T23:34:00,pth,1.20
2022-03-19T23:35:00,pth,1.20
2022-03-19T23:37:00,pth,2.40